Waarnemingen

Advertentie
Mijn weer
Oviedo, Spanje (8015): temperatuur & dauwpunt: 17.10.2019 18:00:00 - 23.10.2019 18:00:00 (CEST)Oviedo, Spanje (8015): windsnelheid: 17.10.2019 18:00:00 - 23.10.2019 18:00:00 (CEST)Oviedo, Spanje (8015): windrichting: 17.10.2019 18:00:00 - 23.10.2019 18:00:00 (CEST)Oviedo, Spanje (8015): luchtdruk: 17.10.2019 18:00:00 - 23.10.2019 18:00:00 (CEST)Oviedo, Spanje (8015): zicht: 17.10.2019 18:00:00 - 23.10.2019 18:00:00 (CEST)Oviedo, Spanje (8015): neerslag: 17.10.2019 18:00:00 - 23.10.2019 18:00:00 (CEST)
Datum & Tijd tt [°C] td [°C] ff [km/u] ff [kn] dd ppp [hPa] vv [km] rr [mm]
23.10.2019 18:00:00 - - - - - - - -
23.10.2019 17:00:00 10,3 9,5 13 7 W 1011,3 10 -
23.10.2019 16:00:00 10,6 10,4 13 7 W 1010,9 3,3 1,0
23.10.2019 15:00:00 10,7 10,7 13 7 W 1010,7 8 0,8
23.10.2019 14:00:00 10,6 10,6 9 5 W 1011,1 5 -
23.10.2019 13:00:00 10,6 10,6 15 8 WNW 1010,7 13 0,6
23.10.2019 12:00:00 10,3 10,3 13 7 WNW 1011,7 0,7 2,0
23.10.2019 11:00:00 10,1 10,1 11 6 WNW 1011,7 0,3 -
23.10.2019 10:00:00 9,9 9,9 15 8 W 1011,0 0,2 3,0
23.10.2019 09:00:00 10,4 10,4 11 6 NW 1011,0 0,1 1,0
23.10.2019 08:00:00 10,4 10,4 9 5 WNW 1010,8 0,1 -
23.10.2019 07:00:00 10,4 10,4 15 8 NNW 1011,2 0,7 2,0
23.10.2019 06:00:00 10,3 10,3 11 6 NW 1011,7 0,1 0,6
23.10.2019 05:00:00 10,3 10,3 8 4 WNW 1012,5 0,1 -
23.10.2019 04:00:00 10,7 10,4 9 5 NW 1013,2 15 0,2
23.10.2019 03:00:00 10,8 10,3 9 5 NNW 1013,5 18 0,0
23.10.2019 02:00:00 11,0 10,1 13 7 N 1014,0 11 -
23.10.2019 01:00:00 10,6 10,6 9 5 NNW 1014,7 10 4,0
23.10.2019 00:00:00 10,3 10,3 9 5 WNW 1015,0 1,5 0,2
22.10.2019 23:00:00 10,4 10,4 4 2 W 1015,6 - -
22.10.2019 22:00:00 10,4 10,4 8 4 WNW 1015,7 10 0,2
22.10.2019 21:00:00 10,5 10,5 5 3 ZO 1016,3 2,3 2,0
22.10.2019 20:00:00 10,7 10,5 9 5 W 1016,5 15 -
22.10.2019 19:00:00 11,2 10,6 8 4 WNW 1016,5 20 0,0
22.10.2019 18:00:00 12,1 10,2 4 2 NNO 1017,1 19 0,4
22.10.2019 17:00:00 13,2 10,2 8 4 NO 1017,2 15 -
22.10.2019 16:00:00 13,7 9,1 8 4 NNO 1018,0 18 0,0
22.10.2019 15:00:00 12,7 9,9 5 3 NW 1018,7 20 0,0
22.10.2019 14:00:00 12,1 9,8 4 2 WNW 1019,8 20 -
22.10.2019 13:00:00 11,8 10,5 4 2 W 1020,5 20 0,0
22.10.2019 12:00:00 9,2 8,9 4 2 WZW 1021,2 15 0,0
22.10.2019 11:00:00 7,6 7,6 4 2 ZZW 1021,0 20 -
22.10.2019 10:00:00 6,3 6,3 8 4 Z 1021,8 2,0 0,0
22.10.2019 09:00:00 5,9 5,9 8 4 Z 1021,4 0,2 0,0
22.10.2019 08:00:00 6,1 6,1 5 3 WZW 1021,3 0,1 -
22.10.2019 07:00:00 6,3 6,3 8 4 Z 1021,4 0,3 0,0
22.10.2019 06:00:00 6,2 6,2 5 3 Z 1021,3 0,1 0,0
22.10.2019 05:00:00 6,7 6,7 5 3 Z 1021,1 0,6 -
22.10.2019 04:00:00 6,9 6,9 5 3 Z 1021,1 0,1 0,0
22.10.2019 03:00:00 7,2 7,2 4 2 Z 1021,2 2,2 0,0
22.10.2019 02:00:00 7,9 7,9 5 3 ZZO 1021,2 0,2 -
22.10.2019 01:00:00 8,2 8,1 5 3 Z 1021,5 15 0,0
22.10.2019 00:00:00 8,4 8,3 4 2 Z 1021,5 13 0,0
21.10.2019 23:00:00 8,6 8,2 5 3 ZZW 1021,5 20 -
21.10.2019 22:00:00 9,4 8,8 2 1 Z 1021,0 7 0,0
21.10.2019 21:00:00 10,0 9,4 8 4 ZW 1020,8 19 0,0
21.10.2019 20:00:00 10,6 8,7 4 2 NNW 1020,1 14 -
21.10.2019 19:00:00 11,5 9,2 5 3 O 1019,4 17 0,0
21.10.2019 18:00:00 12,0 8,8 8 4 ONO 1018,8 20 0,0
21.10.2019 17:00:00 12,5 8,8 9 5 NNO 1018,5 20 -
21.10.2019 16:00:00 13,3 8,8 9 5 NO 1018,4 20 0,0
21.10.2019 15:00:00 13,7 7,7 5 3 NO 1018,6 20 0,0
21.10.2019 14:00:00 12,2 8,7 5 3 W 1019,3 20 -
21.10.2019 13:00:00 11,7 9,1 5 3 NNW 1019,5 20 0,0
21.10.2019 12:00:00 11,5 9,6 4 2 ZZW 1019,5 20 0,0
21.10.2019 11:00:00 10,2 9,6 5 3 ZW 1019,7 20 -
21.10.2019 10:00:00 8,7 8,6 5 3 W 1019,7 19 0,0
21.10.2019 09:00:00 8,6 8,3 5 3 ZW 1018,9 20 0,0
21.10.2019 08:00:00 8,6 8,5 5 3 Z 1018,5 18 -
21.10.2019 07:00:00 8,6 8,5 8 4 ZZW 1018,3 16 0,0
21.10.2019 06:00:00 8,8 8,5 5 3 ZW 1018,1 20 0,0
21.10.2019 05:00:00 8,7 8,4 5 3 ZW 1018,1 20 -
21.10.2019 04:00:00 8,8 8,5 9 5 ZW 1017,8 19 0,2
21.10.2019 03:00:00 9,1 8,5 5 3 W 1018,1 10 0,4
21.10.2019 02:00:00 9,0 8,5 5 3 ZW 1017,7 16 -
21.10.2019 01:00:00 9,1 8,5 8 4 ZZW 1017,6 20 0,0
21.10.2019 00:00:00 8,9 8,6 9 5 ZW 1017,5 20 0,0
20.10.2019 23:00:00 9,2 8,9 9 5 ZW 1017,1 20 -
20.10.2019 22:00:00 9,4 9,1 5 3 WZW 1016,7 20 0,0
20.10.2019 21:00:00 9,5 9,2 4 2 ZZW 1016,2 20 2,0
20.10.2019 20:00:00 9,7 9,1 5 3 W 1015,5 20 -
20.10.2019 19:00:00 9,8 9,3 5 3 W 1014,7 6 4,0
20.10.2019 18:00:00 11,3 9,7 2 1 WNW 1013,7 20 0,0
20.10.2019 17:00:00 10,0 9,7 9 5 WNW 1013,5 18 -
20.10.2019 16:00:00 11,3 10,2 11 6 W 1012,3 13 0,0
20.10.2019 15:00:00 10,2 9,0 15 8 N 1012,2 - 11,0
20.10.2019 14:00:00 11,7 10,9 5 3 W 1011,9 20 -
20.10.2019 13:00:00 9,7 9,6 2 1 W 1012,3 3,8 2,0
20.10.2019 12:00:00 9,4 9,1 5 3 W 1011,6 3,1 2,0
20.10.2019 11:00:00 8,9 8,4 5 3 W 1011,2 10 -
20.10.2019 10:00:00 8,8 8,5 8 4 ZW 1010,5 16 0,0
20.10.2019 09:00:00 8,4 8,4 5 3 WZW 1009,9 18 2,0
20.10.2019 08:00:00 8,5 8,5 4 2 ZZO 1009,5 4,0 -
20.10.2019 07:00:00 8,4 8,4 9 5 W 1008,9 9 3,0
20.10.2019 06:00:00 8,5 8,5 9 5 W 1008,5 0,2 2,0
20.10.2019 05:00:00 8,8 8,8 5 3 ZZW 1007,8 - -
20.10.2019 04:00:00 9,0 9,0 5 3 W 1007,8 5 2,0
20.10.2019 03:00:00 9,2 9,2 8 4 W 1007,5 7 0,8
20.10.2019 02:00:00 9,7 9,7 9 5 WNW 1007,3 0,4 -
20.10.2019 01:00:00 10,0 9,5 11 6 N 1006,8 - 3,0
20.10.2019 00:00:00 10,2 10,2 5 3 WNW 1006,4 0,1 1,0
19.10.2019 23:00:00 10,4 10,4 5 3 W 1005,9 6 -
19.10.2019 22:00:00 10,7 10,7 9 5 NNW 1005,3 1,7 3,0
19.10.2019 21:00:00 10,9 10,9 11 6 NO 1005,3 4,8 0,8
19.10.2019 20:00:00 10,9 10,9 9 5 ONO 1005,2 5 -
19.10.2019 19:00:00 11,0 11,0 4 2 WNW 1005,0 0,3 2,0
19.10.2019 18:00:00 11,4 11,4 4 2 W 1005,0 2,8 2,0
19.10.2019 17:00:00 11,4 11,4 5 3 WNW 1005,3 1,0 -
19.10.2019 16:00:00 11,8 11,8 8 4 NW 1005,2 1,0 4,0
19.10.2019 15:00:00 12,2 11,9 4 2 W 1005,3 1,9 4,0
19.10.2019 14:00:00 12,5 12,2 4 2 ONO 1006,0 5 -
19.10.2019 13:00:00 12,5 12,3 5 3 O 1006,5 - 1,0
19.10.2019 12:00:00 12,3 12,1 4 2 O 1006,9 - 1,0
19.10.2019 11:00:00 12,4 12,4 8 4 O 1007,0 5 -
19.10.2019 10:00:00 12,4 12,4 5 3 O 1007,3 4,7 1,0
19.10.2019 09:00:00 12,2 12,2 4 2 O 1007,0 2,2 3,0
19.10.2019 08:00:00 12,3 12,3 2 1 WNW 1007,4 1,0 -
19.10.2019 07:00:00 12,2 12,2 4 2 ZO 1007,6 1,5 2,0
19.10.2019 06:00:00 12,3 12,3 4 2 Z 1007,9 0,2 0,6
19.10.2019 05:00:00 12,2 12,2 2 1 WNW 1008,2 0,1 -
19.10.2019 04:00:00 12,4 12,4 4 2 ZW 1008,3 2,7 0,2
19.10.2019 03:00:00 12,8 12,5 0 0 N 1008,7 3,6 0,0
19.10.2019 02:00:00 13,1 12,8 2 1 NNW 1009,1 4,0 -
19.10.2019 01:00:00 13,3 12,7 8 4 OZO 1009,6 4,5 0,2
19.10.2019 00:00:00 13,5 12,4 5 3 ZO 1010,3 11 0,0
18.10.2019 23:00:00 13,9 12,3 2 1 WZW 1010,7 19 -
18.10.2019 22:00:00 14,6 11,4 4 2 WZW 1010,7 19 0,0
18.10.2019 21:00:00 14,8 11,4 4 2 ZO 1010,8 20 0,0
18.10.2019 20:00:00 15,5 11,7 5 3 OZO 1011,2 20 -
18.10.2019 19:00:00 16,1 10,8 4 2 ZO 1011,4 20 0,0
18.10.2019 18:00:00 16,8 10,6 4 2 ZO 1011,8 20 0,0
18.10.2019 17:00:00 16,7 11,4 5 3 ZO 1012,5 20 -
18.10.2019 16:00:00 16,5 10,3 4 2 W 1013,3 20 0,0
18.10.2019 15:00:00 17,0 10,6 4 2 ZO 1013,5 20 0,0
18.10.2019 14:00:00 16,2 9,4 4 2 NNW 1014,7 20 -
18.10.2019 13:00:00 16,0 11,2 4 2 ZW 1015,2 20 0,0
18.10.2019 12:00:00 14,6 11,6 0 0 N 1015,7 20 0,0
18.10.2019 11:00:00 13,6 11,3 4 2 ZZO 1016,1 20 -
18.10.2019 10:00:00 13,0 10,7 4 2 O 1016,1 20 0,0
18.10.2019 09:00:00 12,7 10,6 5 3 Z 1015,7 20 0,0
18.10.2019 08:00:00 13,0 10,2 9 5 WZW 1015,9 15 -
18.10.2019 07:00:00 13,2 9,6 8 4 W 1015,7 20 0,0
18.10.2019 06:00:00 12,5 11,6 5 3 Z 1015,3 20 0,0
18.10.2019 05:00:00 13,1 11,3 5 3 WZW 1015,2 20 -
18.10.2019 04:00:00 13,4 10,9 5 3 WZW 1015,4 20 0,0
18.10.2019 03:00:00 13,3 11,5 5 3 NW 1015,3 20 0,0
18.10.2019 02:00:00 13,4 12,3 5 3 Z 1015,1 18 -
18.10.2019 01:00:00 13,4 12,0 4 2 WNW 1015,1 19 0,0
18.10.2019 00:00:00 13,5 12,1 5 3 WNW 1015,2 19 0,0
17.10.2019 23:00:00 13,7 11,9 2 1 O 1015,1 19 -
17.10.2019 22:00:00 14,1 12,1 5 3 OZO 1014,8 20 0,0
17.10.2019 21:00:00 14,7 12,4 9 5 O 1014,5 20 0,0
17.10.2019 20:00:00 14,9 12,6 5 3 O 1014,3 20 -
17.10.2019 19:00:00 15,4 12,3 11 6 O 1013,9 20 0,0
17.10.2019 18:00:00 16,3 13,2 13 7 ONO 1013,7 20 0,0

tt = temperatuur
td = dauwpunt
ff = windsnelheid
dd = windrichting
ppp = luchtdruk
vv = zicht
rr = neerslag

Weerstations in de omgeving